Вернуться в каталог

DELTA 1 DEB

АктивенLEO
NORAD 14563·DEBRIS·🇺🇸 United States

Запущен Jul 14, 1977 с Cape Canaveral Space Force Station

Loading…

Ближайшие Пролёты (ближайшие 24 часа)

TLE

СвежийSource: Space-Track

Эпоха: Sep 14, 2026, 14:58 UTC

1 14563U 77065FR  26257.62377720  .00001317  00000-0  16752-3 0  9996
2 14563  29.1738 106.4898 0424465 313.3188  43.2742 14.29317581800325

Отслеживайте DELTA 1 DEB в реальном времени с AllMySat

Download on the App Store